• Em Portugal
  • Lista de países
  • Para 7 dias
  • Temperatura da água
  • Mapas de satélite
  • Mapa do tempo
  • Widgets de tempo
  • user-avatar
    Iniciar Sessão

    Previsão horária em Gorlovka

    Hoje, 22 Outubro, Segunda-feira

    Tempo Temperatura Precipitação Vento Pressão Humidade
    00:00 +12°C° 0.1 mm 3 m/s 739 mmHg 82%
    01:00 +12°C° 0 mm 3 m/s 739 mmHg 85%
    02:00 +11°C° 0 mm 3 m/s 739 mmHg 87%
    03:00 +12°C° 0 mm 2 m/s 739 mmHg 90%
    04:00 +12°C° 0.2 mm 2 m/s 739 mmHg 91%
    05:00 +11°C° 0.2 mm 3 m/s 739 mmHg 91%
    06:00 +11°C° 0.2 mm 3 m/s 739 mmHg 92%
    07:00 +11°C° 0.6 mm 3 m/s 739 mmHg 91%
    08:00 +12°C° 0.6 mm 3 m/s 739 mmHg 89%
    09:00 +12°C° 0.6 mm 3 m/s 739 mmHg 88%
    10:00 +12°C° 1.2 mm 3 m/s 739 mmHg 86%
    11:00 +13°C° 1.2 mm 3 m/s 739 mmHg 84%
    12:00 +13°C° 1.2 mm 3 m/s 739 mmHg 82%
    13:00 +14°C° 0.2 mm 3 m/s 739 mmHg 76%
    14:00 +14°C° 0.2 mm 3 m/s 739 mmHg 71%
    15:00 +16°C° 0.2 mm 3 m/s 739 mmHg 66%
    16:00 +16°C° 0.1 mm 3 m/s 739 mmHg 67%
    17:00 +15°C° 0.1 mm 2 m/s 739 mmHg 69%
    18:00 +15°C° 0.1 mm 2 m/s 739 mmHg 71%
    19:00 +14°C° 0.1 mm 2 m/s 739 mmHg 73%
    20:00 +14°C° 0.1 mm 2 m/s 738 mmHg 75%
    21:00 +14°C° 0.1 mm 2 m/s 738 mmHg 77%
    22:00 +14°C° 0.1 mm 2 m/s 738 mmHg 79%
    23:00 +13°C° 0.1 mm 1 m/s 738 mmHg 81%

    Amanhã, 23 Outubro, Terça-feira

    Tempo Temperatura Precipitação Vento Pressão Humidade
    00:00 +13°C° 0.1 mm 1 m/s 737 mmHg 82%
    01:00 +13°C° 0 mm 2 m/s 737 mmHg 84%
    02:00 +12°C° 0 mm 2 m/s 737 mmHg 86%
    03:00 +12°C° 0 mm 2 m/s 737 mmHg 88%
    04:00 +11°C° 0 mm 3 m/s 737 mmHg 89%
    05:00 +10°C° 0 mm 3 m/s 736 mmHg 89%
    06:00 +10°C° 0 mm 3 m/s 736 mmHg 90%
    07:00 +10°C° 0 mm 3 m/s 736 mmHg 87%
    08:00 +8°C° 0 mm 4 m/s 736 mmHg 84%
    09:00 +8°C° 0 mm 4 m/s 736 mmHg 81%
    10:00 +10°C° 0 mm 4 m/s 736 mmHg 74%
    11:00 +11°C° 0 mm 4 m/s 736 mmHg 68%
    12:00 +12°C° 0 mm 4 m/s 736 mmHg 61%
    13:00 +13°C° 0 mm 4 m/s 736 mmHg 55%
    14:00 +13°C° 0 mm 5 m/s 736 mmHg 49%
    15:00 +13°C° 0 mm 5 m/s 735 mmHg 43%
    16:00 +12°C° 0 mm 4 m/s 735 mmHg 45%
    17:00 +11°C° 0 mm 4 m/s 735 mmHg 47%
    18:00 +10°C° 0 mm 3 m/s 734 mmHg 49%
    19:00 +10°C° 0 mm 3 m/s 734 mmHg 50%
    20:00 +9°C° 0 mm 3 m/s 734 mmHg 52%
    21:00 +9°C° 0 mm 3 m/s 734 mmHg 53%
    22:00 +8°C° 0 mm 3 m/s 733 mmHg 55%
    23:00 +8°C° 0 mm 3 m/s 733 mmHg 56%

    Depois de amanhã, 24 Outubro, Quarta-feira

    Tempo Temperatura Precipitação Vento Pressão Humidade
    00:00 +7°C° 0 mm 4 m/s 732 mmHg 57%
    01:00 +7°C° 0 mm 4 m/s 732 mmHg 58%
    02:00 +6°C° 0 mm 4 m/s 731 mmHg 59%
    03:00 +6°C° 0 mm 4 m/s 731 mmHg 61%
    04:00 +6°C° 0 mm 4 m/s 730 mmHg 60%
    05:00 +6°C° 0 mm 5 m/s 729 mmHg 60%
    06:00 +6°C° 0 mm 5 m/s 729 mmHg 60%
    07:00 +7°C° 0.1 mm 6 m/s 728 mmHg 61%
    08:00 +8°C° 0.1 mm 7 m/s 727 mmHg 63%
    09:00 +8°C° 0.1 mm 9 m/s 727 mmHg 65%
    10:00 +10°C° 0.6 mm 9 m/s 726 mmHg 66%
    11:00 +10°C° 0.6 mm 9 m/s 725 mmHg 68%
    12:00 +11°C° 0.6 mm 10 m/s 725 mmHg 69%
    13:00 +11°C° 1.1 mm 9 m/s 724 mmHg 71%
    14:00 +11°C° 1.1 mm 9 m/s 723 mmHg 73%
    15:00 +10°C° 1.1 mm 8 m/s 723 mmHg 75%
    16:00 +10°C° 0.8 mm 8 m/s 722 mmHg 76%
    17:00 +10°C° 0.8 mm 7 m/s 722 mmHg 78%
    18:00 +10°C° 0.8 mm 7 m/s 721 mmHg 80%
    19:00 +10°C° 0.5 mm 7 m/s 721 mmHg 80%
    20:00 +10°C° 0.5 mm 7 m/s 720 mmHg 80%
    21:00 +10°C° 0.5 mm 7 m/s 720 mmHg 80%
    22:00 +10°C° 0.1 mm 7 m/s 719 mmHg 81%
    23:00 +10°C° 0.1 mm 7 m/s 719 mmHg 81%

    25 Outubro, Quinta-feira

    Tempo Temperatura Precipitação Vento Pressão Humidade
    00:00 +9°C° 0.1 mm 6 m/s 718 mmHg 81%
    01:00 +9°C° 1 mm 7 m/s 718 mmHg 81%
    02:00 +8°C° 1 mm 7 m/s 718 mmHg 80%
    03:00 +8°C° 1 mm 7 m/s 718 mmHg 80%
    04:00 +6°C° 0 mm 7 m/s 718 mmHg 76%
    05:00 +5°C° 0 mm 7 m/s 719 mmHg 72%
    06:00 +4°C° 0 mm 7 m/s 719 mmHg 68%
    07:00 +4°C° 0 mm 7 m/s 719 mmHg 68%
    08:00 +4°C° 0 mm 8 m/s 720 mmHg 68%
    09:00 +4°C° 0 mm 8 m/s 720 mmHg 68%
    10:00 +5°C° 0 mm 8 m/s 721 mmHg 65%
    11:00 +5°C° 0 mm 8 m/s 721 mmHg 62%
    12:00 +6°C° 0 mm 8 m/s 721 mmHg 60%
    13:00 +6°C° 0 mm 8 m/s 722 mmHg 59%
    14:00 +6°C° 0 mm 8 m/s 722 mmHg 59%
    15:00 +6°C° 0 mm 7 m/s 722 mmHg 58%
    16:00 +7°C° 0 mm 6 m/s 723 mmHg 59%
    17:00 +5°C° 0 mm 6 m/s 723 mmHg 60%
    18:00 +6°C° 0 mm 5 m/s 723 mmHg 61%
    19:00 +6°C° 0 mm 5 m/s 724 mmHg 63%
    20:00 +5°C° 0 mm 5 m/s 724 mmHg 65%
    21:00 +5°C° 0 mm 5 m/s 724 mmHg 67%
    22:00 +5°C° 0 mm 5 m/s 725 mmHg 71%
    23:00 +4°C° 0 mm 4 m/s 725 mmHg 74%

    26 Outubro, Sexta-feira

    Tempo Temperatura Precipitação Vento Pressão Humidade
    00:00 +4°C° 0 mm 4 m/s 725 mmHg 78%
    01:00 +4°C° 0 mm 4 m/s 725 mmHg 78%
    02:00 +3°C° 0 mm 4 m/s 726 mmHg 79%
    03:00 +2°C° 0 mm 5 m/s 726 mmHg 80%
    04:00 +3°C° 0 mm 4 m/s 726 mmHg 80%
    05:00 +1°C° 0 mm 4 m/s 726 mmHg 80%
    06:00 +1°C° 0 mm 4 m/s 727 mmHg 80%
    07:00 +1°C° 0 mm 4 m/s 727 mmHg 77%
    08:00 +3°C° 0 mm 4 m/s 728 mmHg 73%
    09:00 +4°C° 0 mm 4 m/s 728 mmHg 70%
    10:00 +5°C° 0 mm 4 m/s 728 mmHg 65%
    11:00 +6°C° 0 mm 4 m/s 729 mmHg 59%
    12:00 +7°C° 0 mm 4 m/s 729 mmHg 54%
    13:00 +7°C° 0 mm 4 m/s 730 mmHg 52%
    14:00 +7°C° 0 mm 4 m/s 730 mmHg 50%
    15:00 +8°C° 0 mm 5 m/s 730 mmHg 48%
    16:00 +7°C° 0 mm 4 m/s 731 mmHg 51%
    17:00 +6°C° 0 mm 4 m/s 732 mmHg 54%
    18:00 +5°C° 0 mm 4 m/s 733 mmHg 57%
    19:00 +5°C° 0 mm 4 m/s 733 mmHg 59%
    20:00 +4°C° 0 mm 4 m/s 734 mmHg 61%
    21:00 +4°C° 0 mm 4 m/s 735 mmHg 63%
    22:00 +4°C° 0 mm 4 m/s 736 mmHg 65%
    23:00 +3°C° 0 mm 4 m/s 736 mmHg 67%

    27 Outubro, Sábado

    Tempo Temperatura Precipitação Vento Pressão Humidade
    00:00 +3°C° 0 mm 4 m/s 737 mmHg 68%
    01:00 +3°C° 0 mm 3 m/s 738 mmHg 70%
    02:00 +3°C° 0 mm 3 m/s 738 mmHg 72%
    03:00 +2°C° 0 mm 3 m/s 739 mmHg 75%
    04:00 +2°C° 0 mm 3 m/s 739 mmHg 76%
    05:00 +2°C° 0 mm 3 m/s 740 mmHg 77%
    06:00 +3°C° 0 mm 2 m/s 740 mmHg 79%
    07:00 +3°C° 0 mm 3 m/s 741 mmHg 77%
    08:00 +4°C° 0 mm 3 m/s 741 mmHg 74%
    09:00 +4°C° 0 mm 3 m/s 742 mmHg 72%
    10:00 +6°C° 0 mm 4 m/s 742 mmHg 65%
    11:00 +7°C° 0 mm 5 m/s 742 mmHg 58%
    12:00 +9°C° 0 mm 5 m/s 742 mmHg 52%
    13:00 +10°C° 0 mm 5 m/s 742 mmHg 51%
    14:00 +10°C° 0 mm 5 m/s 742 mmHg 51%
    15:00 +12°C° 0 mm 5 m/s 742 mmHg 50%
    16:00 +10°C° 0 mm 5 m/s 742 mmHg 55%
    17:00 +10°C° 0 mm 5 m/s 741 mmHg 59%
    18:00 +9°C° 0 mm 5 m/s 741 mmHg 64%
    19:00 +9°C° 0 mm 5 m/s 741 mmHg 66%
    20:00 +9°C° 0 mm 6 m/s 741 mmHg 69%
    21:00 +9°C° 0 mm 6 m/s 741 mmHg 71%
    22:00 +9°C° 0 mm 6 m/s 741 mmHg 74%
    23:00 +9°C° 0 mm 6 m/s 742 mmHg 76%

    28 Outubro, Domingo

    Tempo Temperatura Precipitação Vento Pressão Humidade
    00:00 +9°C° 0 mm 6 m/s 742 mmHg 79%
    01:00 +9°C° 0 mm 5 m/s 742 mmHg 81%
    02:00 +8°C° 0 mm 5 m/s 742 mmHg 84%
    03:00 +8°C° 0 mm 5 m/s 742 mmHg 87%
    04:00 +8°C° 0 mm 5 m/s 742 mmHg 88%
    05:00 +8°C° 0 mm 5 m/s 742 mmHg 90%
    06:00 +8°C° 0 mm 6 m/s 742 mmHg 91%
    07:00 +9°C° 0 mm 6 m/s 742 mmHg 89%
    08:00 +10°C° 0 mm 7 m/s 742 mmHg 86%
    09:00 +10°C° 0 mm 7 m/s 742 mmHg 84%
    10:00 +12°C° 0 mm 7 m/s 743 mmHg 78%
    11:00 +13°C° 0 mm 8 m/s 743 mmHg 71%
    12:00 +15°C° 0 mm 8 m/s 743 mmHg 65%
    13:00 +16°C° 0 mm 8 m/s 742 mmHg 63%
    14:00 +16°C° 0 mm 8 m/s 742 mmHg 61%
    15:00 +17°C° 0 mm 8 m/s 742 mmHg 59%
    16:00 +16°C° 0 mm 7 m/s 742 mmHg 63%
    17:00 +15°C° 0 mm 7 m/s 742 mmHg 67%
    18:00 +14°C° 0 mm 6 m/s 742 mmHg 71%
    19:00 +14°C° 0 mm 6 m/s 742 mmHg 71%
    20:00 +13°C° 0 mm 6 m/s 742 mmHg 71%
    21:00 +13°C° 0 mm 6 m/s 742 mmHg 71%
    22:00 +13°C° 0 mm 6 m/s 742 mmHg 73%
    23:00 +11°C° 0 mm 6 m/s 742 mmHg 74%
    Mostrar mais